This demonstration page uses our WeatherBlox Daily Observations layout. Learn more.

Left ArrowRight Arrow

Hourly Observations for March 31, 2021

Temp ( °F °C ) Dew Point ( °F °C ) Humidity (%) Winds ( mph kmh ) Pressure ( in mb ) Visibility ( mi km ) Precip ( " mm )
12:59 am 00:59 Partly Cloudy 60 15.6 52 11.1 75 75 SSE 7 11 30.26 1025 10 16 0.00 0.00
1:59 am 01:59 Cloudy 60 15.6 52 11.1 75 75 S 6 9 30.25 1024 10 16 0.00 0.00
2:59 am 02:59 Cloudy 60 15.6 53 11.7 78 78 S 7 11 30.23 1024 10 16 0.00 0.00
3:59 am 03:59 Cloudy 59 15 53 11.7 81 81 S 6 9 30.21 1023 10 16 0.00 0.00
4:59 am 04:59 Cloudy 60 15.6 53 11.7 78 78 S 7 11 30.21 1023 10 16 0.00 0.00
5:59 am 05:59 Cloudy 60 15.6 53 11.7 78 78 SSE 7 11 30.20 1023 10 16 0.00 0.00
6:59 am 06:59 Mostly Cloudy 60 15.6 54 12.2 80 80 SSE 6 9 30.20 1023 10 16 0.00 0.00
7:59 am 07:59 Mostly Cloudy 63 17.2 55 12.8 76 76 SSE 7 11 30.18 1022 10 16 0.00 0.00
8:59 am 08:59 Mostly Cloudy 66 18.9 57 13.9 73 73 S 8 13 30.17 1022 10 16 0.00 0.00
9:59 am 09:59 Cloudy 67 19.4 58 14.4 73 73 S 8 13 30.15 1021 10 16 0.00 0.00
10:59 am 10:59 Mostly Cloudy 73 22.8 59 15 62 62 S 13 20 30.13 1020 10 16 0.00 0.00
11:59 am 11:59 Sunny 77 25 60 15.6 56 56 S 14 22 30.10 1019 10 16 0.00 0.00
12:59 pm 12:59 Mostly Cloudy 77 25 60 15.6 56 56 S 12 19 30.06 1018 10 16 0.00 0.00
1:59 pm 13:59 Mostly Cloudy 79 26.1 60 15.6 52 52 S 9 15 30.02 1017 10 16 0.00 0.00
2:59 pm 14:59 Mostly Cloudy 78 25.6 60 15.6 54 54 S 13 20 29.98 1015 10 16 0.00 0.00
3:59 pm 15:59 Partly Cloudy 78 25.6 60 15.6 54 54 S 10 17 29.94 1014 10 16 0.00 0.00
4:59 pm 16:59 Mostly Cloudy 78 25.6 60 15.6 54 54 S 14 22 29.90 1012 10 16 0.00 0.00
5:59 pm 17:59 Cloudy with Light Rain 76 24.4 62 16.7 62 62 SW 14 22 29.89 1012 7 11 0.00 0.00
6:04 pm 18:04 Cloudy with Light Rain 72 22.2 63 17.2 73 73 W 24 39 29.90 1013 1 2 0.13 3.30
6:11 pm 18:11 Cloudy with Light Rain 70 21.1 64 17.8 82 82 W 9 15 29.89 1012 7 11 0.20 5.08
6:59 pm 18:59 Cloudy 70 21.1 65 18.3 84 84 S 8 13 29.89 1012 10 16 0.20 5.08
7:16 pm 19:16 Cloudy with Rain 67 19.4 61 16.1 81 81 WNW 26 43 29.91 1013 2 2 0.17 4.32
7:30 pm 19:30 Cloudy with Rain 65 18.3 62 16.7 90 90 NW 12 19 29.91 1013 2 2 0.25 6.35
7:40 pm 19:40 Cloudy with Thunderstorms 65 18.3 63 17.2 93 93 WNW 6 9 29.90 1013 3 5 0.29 7.37
7:54 pm 19:54 Cloudy with Thunderstorms 65 18.3 62 16.7 90 90 WSW 3 6 29.90 1013 4 6 0.32 8.13
8:30 pm 20:30 Mostly Cloudy with Rain 65 18.3 62 16.7 90 90 SSE 3 6 29.89 1012 8 13 0.03 0.76
8:54 pm 20:54 Cloudy with Rain 64 18 63 17 94 94 SSE 5 7 29.88 1012 7 11 0.05 1.27
8:59 pm 20:59 Cloudy with Rain 65 18.3 63 17.2 93 93 SSE 3 6 29.88 1012 9 14 0.05 1.27
9:28 pm 21:28 Cloudy 65 18.3 63 17.2 93 93 S 8 13 29.89 1012 10 16 0.00 0.00
9:55 pm 21:55 Cloudy 66 19 63 17 88 88 W 7 11 29.91 1013 10 16 0.00 0.00
9:59 pm 21:59 Cloudy 66 18.9 63 17.2 90 90 WSW 9 15 29.91 1013 10 16 0.00 0.00
10:59 pm 22:59 Cloudy 64 17.8 61 16.1 90 90 W 6 9 29.90 1012 8 13 0.00 0.00
11:28 pm 23:28 Cloudy 64 17.8 61 16.1 90 90 W 3 6 29.87 1012 10 16 0.00 0.00
11:59 pm 23:59 Cloudy 64 17.8 61 16.1 90 90 SSW 5 7 29.85 1011 10 16 0.00 0.00

Powered by AerisWeather